Regional Weather Roundup
Issued by NWS Portland, ME

Current Version | Previous Version | Text Only | Print | Product List | Glossary On
Versions: 1 2 3 4 5 6 7 8 9 10 11 12 13 14 15 16 17 18 19 20 21 22 23 24 25 26 27 28 29 30 31 32 33 34 35 36 37 38 39 40 41 42 43 44 45 46 47 48 49 50
000
ASUS41 KGYX 100710
RWRGYX
WEATHER ROUNDUP FOR MAINE AND NEW HAMPSHIRE
NATIONAL WEATHER SERVICE GRAY ME
200 AM EST WED FEB 10 2016

MEZ002-005-006-010-012-015-018-020-021-024-026-027-029-100800-
MAINE

CITY           SKY/WX    TMP DP  RH WIND       PRES   REMARKS
PORTLAND       CLOUDY    15  12  88 CALM      29.61R
SANFORD        CLOUDY    12   7  79 NW3       29.58F
BAR HARBOR     CLOUDY    19  18  93 CALM      29.59R
WISCASSET      CLOUDY    11   7  84 CALM      29.62S
ROCKLAND       CLEAR     12   9  87 CALM      29.61R
FRYEBURG       CLEAR     10   7  87 CALM      29.56F
LEWISTONAUBURN MOCLDY    14   9  79 CALM      29.57S
AUGUSTA        MOCLDY    11   9  92 CALM      29.58S
WATERVILLE     FLURRIES   8   5  87 CALM      29.55S
BANGOR         FLURRIES  18  15  88 W3        29.58R
GREENVILLE       N/A      6   2  83 CALM      29.45S
MILLINOCKET    CLOUDY    19  13  77 CALM      29.56S
HOULTON        CLOUDY    16  12  84 CALM      29.52S
PRESQUE ISLE   FLURRIES  11   8  88 CALM      29.53S
FRENCHVILLE    MOCLDY    13  10  88 W3        29.49R
CARIBOU        LGT SNOW  13   9  84 N3        29.50F FOG
$$

NHZ002-005-008-009-011-012-014-100800-
NEW HAMPSHIRE

CITY           SKY/WX    TMP DP  RH WIND       PRES   REMARKS
PORTSMOUTH     CLOUDY    19  15  83 N2        29.58F
ROCHESTER      CLOUDY    17  12  80 CALM      29.57F
NASHUA         CLOUDY    18  16  93 CALM      29.59F
MANCHESTER     CLOUDY    21  16  81 CALM      29.57F
CONCORD        CLOUDY    19  15  84 CALM      29.58S
LACONIA        CLOUDY    18  14  86 CALM      29.56F
PLYMOUTH       CLOUDY    19  18  96 CALM      29.55F
BERLIN         LGT SNOW  13   9  84 CALM      29.49S FOG
WHITEFIELD     CLOUDY    17  14  88 CALM      29.50S
JAFFREY        PTCLDY    15  11  83 CALM      29.52S
KEENE          PTCLDY    19  12  73 CALM      29.55S
LEBANON        CLOUDY    19  16  88 CALM      29.53S
MT WASHINGTON  BLWGSNOW   7   7 100 W40         N/A  VSB 0   WCI -19
$$

VTZ005-007-008-100800-
VERMONT

CITY           SKY/WX    TMP DP  RH WIND       PRES   REMARKS
ST JOHNSBURY     N/A     19  14  81 MISG      29.51S
MONTPELIER     LGT SNOW  21  18  88 CALM      29.51F FOG
BURLINGTON     CLOUDY    26  20  77 CALM      29.52S
$$

MAZ007-012-024-CTZ003-RIZ002-NYZ038-NYZ072-100800-
SOUTHERN NEW ENGLAND AND NY

CITY           SKY/WX    TMP DP  RH WIND       PRES   REMARKS
BOSTON         CLEAR     24  18  77 CALM      29.61
WORCESTER      CLOUDY    19  15  84 SW5       29.53S
NANTUCKET      CLOUDY    29  24  82 N5        29.60S
PROVIDENCE     CLOUDY    20  17  88 CALM      29.61S
HARTFORD       CLOUDY    21  18  88 CALM      29.58R
ALBANY         MOCLDY    24  21  88 CALM      29.55S
NEW YORK CITY  LGT SNOW  33  27  78 S5        29.59S
$$

ANZ081-ANZ082-ANZ150-NHZ014-MEZ023>029-100800-
COASTAL MARINE OBSERVATIONS

STATION/POSITION TIME  TEMP    WIND        PRES    WAVE
                       AIR SEA DIR/SP/G            HT/PER
                 (UTC) (F)     (DEG/KT/KT) (MB)    (FT/S)
MOUNT DESERT ROC 0700   26     290/ 10/ 13 1001.9R
MATINICUS ROCK   0700          310/ 12/ 14 1002.2R
ISLE OF SHOALS   0700   26     280/  3/  4 1001.7F
JEFFREYS LEDGE   0604      44                N/A     6/13
CASHES LEDGE BUO 0650   28 43  310/ 10/ 14 1002.4R   6/12
GEORGES BANK BUO 0650   39 46              1000.9F   8/13
$$

.............KEY..............
   WCI - WIND CHILL
   TC  - TEMPERATURE IN CELSIUS
   VSB - VISIBILITY IN MILES
   HX  - HEAT INDEX
   FAIR- INDICATES FEW OR NO CLOUDS BELOW 12,000 FT, WITH NO
         SIGNIFICANT WEATHER AND/OR OBSTRUCTIONS TO VISIBILITY.





USA.gov is the U.S. government's official web portal to all federal, state and local government web resources and services.